Flag for Germany Weather past 2 weeks in Görlitz, Saxony, Germany

Now
57 °F

Sunny.


Feels Like: 57 °F
Forecast: 62 / 76 °F
Wind: 2 mph from South

Location: Goerlitz

Current Time: Jul 7, 2015 at 6:56:51 AM

Latest Report: Jul 7, 2015 at 6:00 AM


Visibility: 25 mi

Pressure: 30.07 "Hg

Humidity: 93%

Dew point: 55 °F

Location of GörlitzLocation

Historic Weather in Görlitz — Graph

°F

Görlitz temperature yesterday

Maximum temperature yesterday: 81 °F (at 1:00 AM)
Minimum temperature yesterday: 61 °F (at 11:00 PM)
Average temperature yesterday: 72 °F

Past Weeks' High & Low Weather Summary

 TemperatureHumidityPressure
High94 °F (Jul 5, 5:00 PM)98% (Jun 25, 5:00 AM)30.30 "Hg (Jun 25, 5:00 AM)
Low41 °F (Jun 25, 4:00 AM)26% (Jul 4, 5:00 PM)29.66 "Hg (Jun 23, 7:00 AM)
Average66 °F67%30.10 "Hg
* Reported Jun 22 6:00 AM — Jul 7 6:00 AM, Görlitz, Weather by CustomWeather, © 2015

Note: Actual official high and low records may vary slightly from our data, if they occured in-between our weather recording intervals... More about our weather records

Advertising

Görlitz weather history for previous 24 hours

 ConditionsComfort  
Time TempWeatherWind HumidityBarometerVisibility
6:00 AM
Tue, Jul 7
57 °FSunny.2 mph93%30.07 "Hg25 mi
5:00 AM55 °FFog.1 mph96%30.08 "Hg19 mi
4:00 AM56 °FFog.1 mph96%30.09 "Hg19 mi
3:00 AM56 °FClear.2 mph95%30.09 "Hg19 mi
2:00 AM57 °FClear.1 mph89%30.10 "Hg19 mi
1:00 AM56 °FClear.1 mph88%30.11 "Hg19 mi
12:00 AM62 °FClear.1 mph73%30.11 "Hg19 mi
11:00 PM
Mon, Jul 6
61 °FClear.1 mph77%30.11 "Hg25 mi
10:00 PM66 °FClear.1 mph60%30.11 "Hg25 mi
9:00 PM70 °FSunny.2 mph56%30.09 "Hg25 mi
8:00 PM74 °FSunny.2 mph46%30.08 "Hg25 mi
7:00 PM76 °FPassing clouds.3 mph41%30.08 "Hg25 mi
6:00 PM76 °FPassing clouds.5 mph43%30.09 "Hg25 mi
5:00 PM76 °FPassing clouds.3 mph43%30.10 "Hg22 mi
4:00 PM75 °FScattered clouds.5 mph45%30.11 "Hg22 mi
3:00 PM76 °FScattered clouds.7 mph45%30.11 "Hg16 mi
2:00 PM75 °FPartly sunny.6 mph53%30.11 "Hg19 mi
1:00 PM73 °FOvercast.6 mph63%30.11 "Hg17 mi
12:00 PM69 °FOvercast.6 mph75%30.12 "Hg16 mi
11:00 AM68 °FOvercast.6 mph83%30.11 "Hg16 mi
10:00 AM68 °FRain. Overcast.5 mph90%30.08 "Hg7 mi
9:00 AM70 °FOvercast.5 mph86%30.05 "Hg9 mi
8:00 AM70 °FPartly sunny.2 mph90%30.01 "Hg15 mi
7:00 AM69 °FOvercast.1 mph89%30.00 "Hg9 mi
Weather by CustomWeather, © 2015

See weather overviewHow to use our weather pages